Regional Weather Roundup
Issued by NWS Charleston, SC

Home | Current Version | Previous Version | Text Only | Print | Product List | Glossary On
Versions: 1 2 3 4 5 6 7 8 9 10 11 12 13 14 15 16 17 18 19 20 21 22 23 24 25 26 27 28 29 30 31 32 33 34 35 36 37 38 39 40 41 42 43 44 45 46 47 48 49 50
000
ASUS42 KCHS 232128
RWRCHS

REGIONAL WEATHER ROUNDUP
NATIONAL WEATHER SERVICE CHARLESTON SC
500 PM EDT TUE AUG 23 2016

NOTE: "FAIR" INDICATES FEW OR NO CLOUDS BELOW 12,000 FEET WITH NO
SIGNIFICANT WEATHER AND/OR OBSTRUCTIONS TO VISIBILITY.

NOT ALL STATIONS ARE QUALITY CONTROLLED. USE DATA WITH CAUTION...
ESPECIALLY DEWPOINT OBSERVATIONS.

SCZ027-030-031-034>040-042>050-232200-
...SOUTHEAST SOUTH CAROLINA...

CITY           SKY/WX    TMP DP  RH WIND       PRES   REMARKS
N CHARLESTON   MOSUNNY   87  68  52 SE15G21   30.20R HX  90
WATERFRONT PRK   N/A     87  75  67 E15       30.18F HX  96
MOUNT PLEASANT FAIR      88  72  58 E6        30.21R HX  94
JOHNS ISLAND   FAIR      86  73  66 E16       30.20S HX  93
PINOPOLIS        N/A     86  72  62 E10       30.13R HX  92
MONCKS CORNER  MOCLDY    82  68  61 SE6       30.20S
SUMMERVILLE    MOCLDY    88  70  55 E5        30.20S HX  92
BEAUFORT MCAS  MOSUNNY   86  73  65 E15       30.19S HX  93
BEAUFORT ARPT  FAIR      86  70  58 E13G18    30.19S HX  90
HILTON HEAD IS PTSUNNY   91  73  55 E7        30.20S HX 100
WALTERBORO     CLEAR     90  70  51 SE9       30.19S HX  95
ALLENDALE      FAIR      91  68  46 E9        30.17S HX  95

...SOUTHERN MIDLANDS AND PEE DEE...

CITY           SKY/WX    TMP DP  RH WIND       PRES   REMARKS
GEORGETOWN     FAIR      86  66  51 SE13      30.22S
KINGSTREE      FAIR      88  66  48 E7        30.20S HX  90
ORANGEBURG     MOSUNNY   90  67  46 E6        30.19S HX  93
BARNWELL       NOT AVBL
AIKEN          FAIR      90  64  43 SE7       30.23S HX  91
MANNING        MOCLDY    84  70  61 E3        30.20S
COLUMBIA       MOSUNNY   92  66  42 E5        30.18F HX  94
SUMTER         MOSUNNY   90  61  37 VRB7      30.17F HX  90
FLORENCE       SUNNY     92  64  39 E6        30.20F HX  93
MYRTLE BEACH   NOT AVBL
N MYRTLE BEACH SUNNY     85  66  53 E12       30.21F

$$

GAZ063-065-086>088-099>101-113>116-118-119-134>141-150-232200-
...SOUTHEAST GEORGIA...

CITY           SKY/WX    TMP DP  RH WIND       PRES   REMARKS
SAVANNAH ARPT  CLOUDY    86  71  60 SE15      30.19S HX  91
HUNTER AAF     CLOUDY    85  78  77 E12       30.17S HX  97
FORT STEWART   CLOUDY    78  75  91 W3        30.18S
STATESBORO     CLOUDY    86  77  75 S8        30.20R HX  97
SYLVANIA       PTCLDY   N/A N/A N/A S7        30.20R
CLAXTON        FAIR      82  77  85 E3        30.19S

...CSRA...CENTRAL AND FAR SOUTHEAST GEORGIA...

CITY           SKY/WX    TMP DP  RH WIND       PRES   REMARKS
THOMSON        MOSUNNY   91  72  53 MISG      30.23S HX  99
AUGUSTA-BUSH   MOSUNNY   93  66  40 NE5       30.16F HX  96
AUGUSTA-DANIEL CLOUDY    93  63  36 E6        30.19S HX  94
SWAINSBORO     LGT RAIN  77  73  88 SE6       30.19S
VIDALIA        CLOUDY    81  79  94 SE5       30.20R
EASTMAN        MOCLDY    82  71  69 E5        30.21R
HAZLEHURST     LGT RAIN  79  79 100 CALM      30.17S
ALMA           LGT RAIN  77  76  96 NE5       30.19R
WAYCROSS         N/A     80  80  99 NW5       30.18R
JESUP          LGT RAIN  77  77 100 E6        30.18F
BAXLEY         RAIN      79  79 100 CALM      30.19S
BRUNSWICK      CLOUDY    86  79  79 E15       30.18R THUNDER HX  99
SAINT SIMONS   PTSUNNY   86  76  71 NE14      30.16F HX  96

$$

SCZ027-028-034-036>038-045-046-048>050-GAZ119-141-232200-
...LAKE AND SUPPLEMENTAL COASTAL OBSERVATIONS...

STATION/POSITION TIME  TEMP    WIND        PRES    WAVE   SWELL
                       AIR SEA DIR/SP/G            HT/PER HT/PER/DIR
                 (UTC) (F)     (DEG/KT/KT) (MB)    (FT/S) (FT/S/D)
WINYAH BAY       2000   83     100/ 12     1022.0F
LAKE MURRAY      2000   89      50/  3/  7 1022.0F
ACE BASIN NERRS  2000   88      90/  4     1022.0F
FORT PULASKI     2100   85 87   90/ 14/ 17 1022.8F
SAPELO ISLAND    2100   85      70/  9     1022.0S

$$

ANZ835-935-AMZ111-154-330-350-352-354-370-450-454-472-232200-
...C-MAN AND BUOY OBSERVATIONS...

STATION/POSITION TIME  TEMP    WIND        PRES    WAVE   SWELL
                       AIR SEA DIR/SP/G            HT/PER HT/PER/DIR
                 (UTC) (F)     (DEG/KT/KT) (MB)    (FT/S) (FT/S/D)
BUOY 41004       2050   84 85   70/ 16/ 19 1021.9F   4/ 5   2/ 70/ 7
BUOY 41008       2050   85 85   70/ 14/ 16 1021.3F   2/ 4
FOLLY BEACH CMAN 2100   84      80/ 15/ 18 1023.0S
CAPERS NEARSHORE 2108   84 86   90/ 14/ 19 1022.5R
FRIPP NEARSHORE  2108   85 87  100/ 16/ 19 1021.6S


STATION/POSITION TIME  TEMP    WIND        PRES    WAVE   SWELL
                       AIR SEA DIR/SP/G            HT/PER HT/PER/DIR
                 (UTC) (F)     (DEG/KT/KT) (MB)    (FT/S) (FT/S/D)
5E ST. MARYS GA  2101      84                N/A     2/ 3
FRYING PAN BUOY  2100   83 85   50/ 16/ 19 1022.5F
BUOY 41025       2050   80 85   30/ 19/ 23 1023.7F   4/ 6   2/ 50/ 8
CAPE LOOKOUT NC  2100   81      60/ 18/ 21 1023.5F
BUOY 41002       2050   83 85   50/ 12/ 16 1020.9F   4/ 7   2/ 50/ 7
BUOY 41010       NOT AVBL
ST AUGUSTINE FL  2100   84 86   50/ 14/ 15 1021.3F


$$




USA.gov is the U.S. government's official web portal to all federal, state and local government web resources and services.